User: anonymous   Login
Location: Unspecified
(0.0000°N, 0.0000°E)
Time: 14:47:23
(UTC+00:00)
Language:

OBJECT H - Orbit

View from above orbital plane
View from above orbital plane
View from above satellite
View from above satellite

Ground track
Ground track

The orbit data is extracted from the following two-line orbital elements,

1 43669U 18083H   23266.07002845  .00045313  00000-0  11148-2 0  9996
2 43669  97.3733 292.6955 0008597 122.9609 237.2465 15.40445897271981
Epoch (UTC): 23 September 2023 01:40:50
Eccentricity: 0.0008597
inclination: 97.3733°
perigee height: 439 km
apogee height: 450 km
right ascension of ascending node: 292.6955°
argument of perigee: 122.9609°
revolutions per day: 15.40445897
mean anomaly at epoch: 237.2465°
orbit number at epoch: 27198

The dashed part of the orbit path shows where the satellite is in the earth's shadow,  

DLR